sat.trackr.live / text

‹ back to catalog

STARLINK-31197

NORAD 58859 · 2024-019G

PAYLOAD ACTIVE UNKNOWN

§ Identity

Operator
Country
US
Launch date
2024-01-29
Launch site
AFETR
Launch vehicle
Mass (kg)
RCS (m²)

Purposes: comms

External: N2YO · Heavens-Above · Gunter

§ Orbital elements

Epoch: 2026-05-24T13:37:47.862048Z

Period
94.27 min
Inclination
43.0020°
Eccentricity
0.0001474
Mean motion
15.27582843 rev/d
Perigee alt
482.0 km
Apogee alt
484.1 km
Semi-major
6,861.2 km
B*
5.1807e-5
RAAN
180.6935°
Arg perigee
269.6428°
Mean anomaly
90.4255°
Rev number
13,068

§ Raw data

STARLINK-311971 58859U 24019G   26144.56791507  .00001164  00000+0  51807-4 0  99942 58859  43.0020 180.6935 0001474 269.6428  90.4255 15.27582843130689

JSON: /api/v1/satellites/58859 · /tle

For live sub-satellite position, see the globe view (requires WebGL).

§ Visibility from observer

Set your observer location to see the next 7 days of passes ≥ 10°. The values pass through the URL so the page stays shareable.

No JS? Fill the form by hand. The geolocation button needs JavaScript.